Regional Weather Roundup
Issued by NWS

Home | Current Version | Previous Version | Graphics & Text | Print | Product List | Glossary On
Versions: 1 2 3 4 5 6 7 8 9 10 11 12 13 14 15 16 17 18 19 20 21 22 23 24 25 26 27 28 29 30 31 32 33 34 35 36 37 38 39 40 41 42 43 44 45 46 47 48 49 50
000
ASUS43 KTOP 312059
RWRKS

WEATHER ROUNDUP FOR KANSAS
NATIONAL WEATHER SERVICE GOODLAND KS
300 PM CST SAT JAN 31 2015

NOTE:  "FAIR" INDICATES FEW OR NO CLOUDS BELOW 12,000 FEET WITH NO
SIGNIFICANT WEATHER AND/OR OBSTRUCTIONS TO VISIBILITY.

KSZ001>006-013>018-027>032-041>047-312200-
NORTHWEST KANSAS

CITY           SKY/WX    TMP DP  RH WIND       PRES   REMARKS
GOODLAND       CLOUDY    37  34  89 NW13      29.79F WCI  29
HAYS           CLOUDY    39  30  70 S15       29.85F WCI  31
HILL CITY      CLOUDY    39  37  92 S10       29.84F WCI  32
RUSSELL        LGT RAIN  39  38  96 S12       29.86F FOG     WCI  32
$$

KSZ061>065-074>080-084>089-312200-
SOUTHWEST KANSAS

CITY           SKY/WX    TMP DP  RH WIND       PRES   REMARKS
DODGE CITY     CLOUDY    39  36  89 S16G24    29.84F WCI  30
ELKHART          N/A     43  33  68 SW10        N/A
GARDEN CITY    CLOUDY    39  37  92 SW16      29.81F WCI  30
LIBERAL        CLOUDY    41  36  81 SW17      29.85F
$$

KSZ066>073-081>083-090>101-312200-
SOUTHEAST KANSAS

CITY           SKY/WX    TMP DP  RH WIND       PRES   REMARKS
CHANUTE        LGT RAIN  40  35  83 SE13      30.06F WCI  32
COFFEYVILLE    LGT RAIN  42  34  73 SE9       30.05F
HUTCHINSON     LGT RAIN  40  37  89 S16       29.93F FOG     WCI  31
MEDICINE LODGE   N/A     40  39  97 S10G20    29.91F WCI  33
NEWTON         CLOUDY    39  34  81 S14       29.97F WCI  31
PARSONS        LGT RAIN  41  36  82 SE6       30.06F
WICHITA INTL   LGT RAIN  40  38  93 S15       29.96F WCI  32
WICHITA JABRA  LGT RAIN  40  40 100 S10       29.97F WCI  33
WINFIELD       LGT RAIN  40  31  70 S12       30.00F WCI  33
$$

KSZ007>012-019>026-033>040-048>060-102>105-312200-
NORTHEAST KANSAS

CITY           SKY/WX    TMP DP  RH WIND       PRES   REMARKS
CONCORDIA      LGT SNOW  33  33 100 SE13      29.92F FOG     WCI  24
EMPORIA        LGT RAIN  37  37 100 SE13      30.00F FOG     WCI  29
LAWRENCE       LGT RAIN  36  34  92 S10       30.08F FOG     WCI  28
MANHATTAN      LGT RAIN  35  34  96 SE9       29.99F FOG
OLATHE IND     LGT RAIN  36  35  96 SE9       30.08F FOG
OLATHE EXE     LGT RAIN  37  35  92 S9        30.07F FOG
SALINA         LGT RAIN  41  38  89 S13       29.93F FOG
TOPEKA BILLARD LGT RAIN  34  33  96 SE7       30.06F FOG
TOPEKA FORBES  LGT RAIN  36  33  89 SE9       30.03F FOG
$$



USA.gov is the U.S. government's official web portal to all federal, state and local government web resources and services.